LRBO Weather Reports


Display with metric or nautical units.
time (UTC)temp
F
wind
direction
speed
MPH
gust
MPH
rain 1hr
in
rain 24hr
in
rain mn
in
humidity
%
barometer
mb
20260905014854 63 300 7.0 0.0 0.00 0.00 0.00 77 1015.0
20260905013353 64 320 7.0 0.0 0.00 0.00 0.00 73 1015.0
20260905011854 64 320 7.0 0.0 0.00 0.00 0.00 73 1015.0
20260905010354 64 320 7.0 0.0 0.00 0.00 0.00 73 1015.0
20260905004854 64 320 7.0 0.0 0.00 0.00 0.00 73 1015.0
20260905003354 64 310 7.0 0.0 0.00 0.00 0.00 68 1015.0
20260905001854 64 310 7.0 0.0 0.00 0.00 0.00 68 1015.0
20260905000355 0 0.0 0.0 0.00 0.00 0.00
20260904234854 0 0.0 0.0 0.00 0.00 0.00
20260904233354 0 0.0 0.0 0.00 0.00 0.00
20260904231856 0 0.0 0.0 0.00 0.00 0.00
20260904230354 0 0.0 0.0 0.00 0.00 0.00
20260904224856 66 320 7.0 0.0 0.00 0.00 0.00 64 1016.0
20260904223354 66 320 7.0 0.0 0.00 0.00 0.00 64 1016.0
20260904221854 66 320 7.0 0.0 0.00 0.00 0.00 64 1016.0
20260904220354 66 320 7.0 0.0 0.00 0.00 0.00 64 1016.0
20260904214854 66 320 7.0 0.0 0.00 0.00 0.00 64 1016.0
20260904213353 66 330 7.0 0.0 0.00 0.00 0.00 68 1016.0
20260904211854 66 330 7.0 0.0 0.00 0.00 0.00 68 1016.0
20260904210353 66 330 7.0 0.0 0.00 0.00 0.00 68 1016.0
20260904204855 66 330 7.0 0.0 0.00 0.00 0.00 68 1016.0
20260904203354 68 310 7.0 0.0 0.00 0.00 0.00 64 1016.0
20260904201854 68 310 7.0 0.0 0.00 0.00 0.00 64 1016.0
20260904200416 0 0.0 0.0 0.00 0.00 0.00
20260904194853 68 300 7.0 0.0 0.00 0.00 0.00 64 1016.0
20260904193415 0 0.0 0.0 0.00 0.00 0.00
20260904191853 68 300 7.0 0.0 0.00 0.00 0.00 64 1016.0
20260904190354 68 300 7.0 0.0 0.00 0.00 0.00 64 1016.0
20260904184854 73 280 7.0 0.0 0.00 0.00 0.00 53 1016.0
20260904183353 73 280 7.0 0.0 0.00 0.00 0.00 53 1016.0
20260904181859 73 280 7.0 0.0 0.00 0.00 0.00 53 1016.0
20260904180353 73 280 7.0 0.0 0.00 0.00 0.00 53 1016.0
20260904174853 79 250 9.0 0.0 0.00 0.00 0.00 45 1015.0
20260904173354 79 250 9.0 0.0 0.00 0.00 0.00 45 1015.0
20260904171854 79 250 9.0 0.0 0.00 0.00 0.00 45 1015.0
20260904170354 79 250 9.0 0.0 0.00 0.00 0.00 45 1015.0
20260904164853 84 250 14.0 0.0 0.00 0.00 0.00 35 1015.0
20260904163353 84 250 14.0 0.0 0.00 0.00 0.00 35 1015.0
20260904161854 84 250 14.0 0.0 0.00 0.00 0.00 35 1015.0
20260904160353 84 250 14.0 0.0 0.00 0.00 0.00 35 1015.0
20260904154854 86 230 14.0 0.0 0.00 0.00 0.00 33 1015.0
20260904153355 86 230 14.0 0.0 0.00 0.00 0.00 33 1015.0
20260904151854 86 230 14.0 0.0 0.00 0.00 0.00 33 1015.0
20260904150355 86 230 14.0 0.0 0.00 0.00 0.00 33 1015.0
20260904144854 86 260 7.0 0.0 0.00 0.00 0.00 31 1015.0
20260904143354 86 260 7.0 0.0 0.00 0.00 0.00 31 1015.0
20260904141850 86 260 7.0 0.0 0.00 0.00 0.00 31 1015.0
20260904140403 86 260 7.0 0.0 0.00 0.00 0.00 31 1015.0
20260904134854 86 240 9.0 0.0 0.00 0.00 0.00 29 1015.0
20260904133354 86 240 9.0 0.0 0.00 0.00 0.00 29 1015.0
20260904131853 86 240 9.0 0.0 0.00 0.00 0.00 29 1015.0
20260904130354 86 240 9.0 0.0 0.00 0.00 0.00 29 1015.0
20260904124853 86 230 9.0 0.0 0.00 0.00 0.00 29 1016.0
20260904123353 86 230 9.0 0.0 0.00 0.00 0.00 29 1016.0
20260904121855 86 230 9.0 0.0 0.00 0.00 0.00 29 1016.0
20260904120354 86 230 9.0 0.0 0.00 0.00 0.00 29 1016.0
20260904114854 84 260 5.0 0.0 0.00 0.00 0.00 33 1016.0
20260904113354 84 260 5.0 0.0 0.00 0.00 0.00 33 1016.0
20260904111851 84 260 5.0 0.0 0.00 0.00 0.00 33 1016.0
20260904110516 0 0.0 0.0 0.00 0.00 0.00
20260904104942 0 0.0 0.0 0.00 0.00 0.00
20260904103505 0 0.0 0.0 0.00 0.00 0.00
20260904101859 82 260 9.0 0.0 0.00 0.00 0.00 37 1017.0
20260904100400 82 260 9.0 0.0 0.00 0.00 0.00 37 1017.0
20260904094851 81 3.0 0.0 0.00 0.00 0.00 39 1017.0
20260904093354 81 3.0 0.0 0.00 0.00 0.00 39 1017.0
20260904091853 81 3.0 0.0 0.00 0.00 0.00 39 1017.0
20260904090353 81 3.0 0.0 0.00 0.00 0.00 39 1017.0
20260904084854 77 250 7.0 0.0 0.00 0.00 0.00 44 1012.0
20260904083354 77 250 7.0 0.0 0.00 0.00 0.00 44 1012.0
20260904081856 77 250 7.0 0.0 0.00 0.00 0.00 44 1012.0
20260904080355 77 250 7.0 0.0 0.00 0.00 0.00 44 1012.0
20260904075014 0 0.0 0.0 0.00 0.00 0.00
20260904073354 75 50 7.0 0.0 0.00 0.00 0.00 50 1017.0
20260904071853 75 50 7.0 0.0 0.00 0.00 0.00 50 1017.0
20260904070354 75 50 7.0 0.0 0.00 0.00 0.00 50 1017.0
20260904064853 70 70 7.0 0.0 0.00 0.00 0.00 60 1017.0
20260904063354 70 70 7.0 0.0 0.00 0.00 0.00 60 1017.0
20260904061855 70 70 7.0 0.0 0.00 0.00 0.00 60 1017.0
20260904060354 70 70 7.0 0.0 0.00 0.00 0.00 60 1017.0
20260904054854 66 270 7.0 0.0 0.00 0.00 0.00 68 1017.0
20260904053354 66 270 7.0 0.0 0.00 0.00 0.00 68 1017.0
20260904051854 66 270 7.0 0.0 0.00 0.00 0.00 68 1017.0
20260904050354 66 270 7.0 0.0 0.00 0.00 0.00 68 1017.0
20260904044854 57 310 7.0 0.0 0.00 0.00 0.00 88 1017.0
20260904043354 57 310 7.0 0.0 0.00 0.00 0.00 88 1017.0
20260904041851 57 310 7.0 0.0 0.00 0.00 0.00 88 1017.0
20260904040353 57 310 7.0 0.0 0.00 0.00 0.00 88 1017.0
20260904034850 59 320 7.0 0.0 0.00 0.00 0.00 82 1016.0
20260904033354 59 320 7.0 0.0 0.00 0.00 0.00 82 1016.0
20260904031854 59 320 7.0 0.0 0.00 0.00 0.00 82 1016.0
20260904030353 59 320 7.0 0.0 0.00 0.00 0.00 82 1016.0
20260904024848 61 330 7.0 0.0 0.00 0.00 0.00 83 1016.0
20260904023354 0 0.0 0.0 0.00 0.00 0.00
20260904021850 0 0.0 0.0 0.00 0.00 0.00
20260904020354 0 0.0 0.0 0.00 0.00 0.00